La Grande, OR

8:37 AM PST on February 23, 2018 (GMT -0800)
La Grande-Union County

Weather History for KLGD - August, 2012

Change the Weather History Date:

Thursday, August 9, 2012

  Actual Average Record
Temperature  
Mean Temperature 68 °F -  
Max Temperature 93 °F 85 °F 102 °F (1972)
Min Temperature 44 °F 49 °F 40 °F (1970)
Cooling Degree Days 4    
Growing Degree Days 18 (Base 50)    
Moisture  
Dew Point 38 °F    
Average Humidity 33    
Maximum Humidity 62    
Minimum Humidity 14    
Precipitation  
Precipitation 0.00 in - - ()
Sea Level Pressure  
Sea Level Pressure 30.08 in    
Wind  
Wind Speed 6 mph (NW)    
Max Wind Speed 21 mph    
Max Gust Speed 29 mph    
Visibility 9 miles    
Events      
Averages and records for this station are not official NWS values.
T = Trace of Precipitation, MM = Missing Value Source: NWS Daily Summary

Daily Weather History Graph

Daily Weather History Graph

Search for Another Location

Airport or City:

Trip Planner

Search our weather history database for the weather conditions in past years. The results will help you decide how hot, cold, wet, or windy it might be!

Date:

Astronomy

Aug. 09, 2012 Rise Set
Actual Time 5:46 AM PDT 8:07 PM PDT
Civil Twilight 5:13 AM PDT 8:40 PM PDT
Nautical Twilight 4:32 AM PDT 9:20 PM PDT
Astronomical Twilight 3:46 AM PDT 10:06 PM PDT
Moon 11:36 PM PDT (8/9) 1:58 PM PDT (8/9)
Length of Visible Light 15h 26m
Length of Day
14h 20m
Waning Gibbous, 50% of the Moon is Illuminated
Aug 9
Waning Gibbous
Aug 17
New
Aug 24
First Quarter
Aug 31
Full
Sep 8
Last Quarter

Hourly Weather History & Observations

Time (PDT) Temp. Windchill Dew Point Humidity Pressure Visibility Wind Dir Wind Speed Gust Speed Precip Events Conditions
12:15 AM 64.4 °F - 33.8 °F 32% 30.15 in 10.0 mi NNW 11.5 mph - N/A   Clear
12:35 AM 64.4 °F - 35.6 °F 34% 30.15 in 10.0 mi NNW 10.4 mph - N/A   Clear
12:55 AM 64.4 °F - 35.6 °F 34% 30.15 in 10.0 mi NNW 11.5 mph - N/A   Clear
1:15 AM 62.6 °F - 35.6 °F 37% 30.16 in 10.0 mi NNW 9.2 mph - N/A   Clear
1:35 AM 60.8 °F - 35.6 °F 39% 30.15 in 10.0 mi West 6.9 mph - N/A   Clear
1:55 AM 55.4 °F - 33.8 °F 44% 30.15 in 10.0 mi Calm Calm - N/A   Clear
2:15 AM 55.4 °F - 35.6 °F 47% 30.15 in 10.0 mi North 5.8 mph - N/A   Clear
2:35 AM 51.8 °F - 33.8 °F 50% 30.15 in 10.0 mi Calm Calm - N/A   Clear
2:55 AM 51.8 °F - 33.8 °F 50% 30.15 in 10.0 mi Calm Calm - N/A   Clear
3:15 AM 48.2 °F - 33.8 °F 58% 30.15 in 10.0 mi SE 5.8 mph - N/A   Clear
3:35 AM 50.0 °F - 33.8 °F 54% 30.15 in 10.0 mi SSW 3.5 mph - N/A   Clear
3:55 AM 51.8 °F - 33.8 °F 50% 30.15 in 10.0 mi WSW 3.5 mph - N/A   Clear
4:15 AM 51.8 °F - 35.6 °F 54% 30.15 in 10.0 mi Calm Calm - N/A   Clear
4:35 AM 46.4 °F - 30.2 °F 53% 30.15 in 10.0 mi Calm Calm - N/A   Clear
4:55 AM 46.4 °F - 33.8 °F 62% 30.15 in 10.0 mi Calm Calm - N/A   Clear
5:15 AM 46.4 °F - 33.8 °F 62% 30.15 in 10.0 mi Calm Calm - N/A   Clear
5:35 AM 44.6 °F - 32.0 °F 61% 30.15 in 10.0 mi Calm Calm - N/A   Clear
5:55 AM 46.4 °F - 33.8 °F 62% 30.15 in 10.0 mi Calm Calm - N/A   Clear
6:15 AM 46.4 °F 45.2 °F 33.8 °F 62% 30.16 in 10.0 mi West 3.5 mph - N/A   Clear
6:35 AM 48.2 °F - 35.6 °F 62% 30.16 in 10.0 mi SW 4.6 mph - N/A   Clear
6:55 AM 51.8 °F - 35.6 °F 54% 30.16 in 8.0 mi Calm Calm - N/A   Clear
7:15 AM 55.4 °F - 37.4 °F 51% 30.17 in 10.0 mi Calm Calm - N/A   Clear
7:35 AM 57.2 °F - 37.4 °F 48% 30.17 in 10.0 mi ESE 3.5 mph - N/A   Clear
7:55 AM 60.8 °F - 37.4 °F 42% 30.16 in 10.0 mi Calm Calm - N/A   Clear
8:15 AM 62.6 °F - 37.4 °F 39% 30.17 in 10.0 mi Calm Calm - N/A   Clear
8:35 AM 64.4 °F - 37.4 °F 37% 30.16 in 10.0 mi Calm Calm - N/A   Clear
8:55 AM 64.4 °F - 37.4 °F 37% 30.16 in 9.0 mi Calm Calm - N/A   Clear
9:15 AM 64.4 °F - 37.4 °F 37% 30.15 in 10.0 mi NNW 5.8 mph - N/A   Clear
9:35 AM 66.2 °F - 37.4 °F 35% 30.15 in 10.0 mi Calm Calm - N/A   Clear
9:55 AM 69.8 °F - 37.4 °F 31% 30.14 in 10.0 mi Calm Calm - N/A   Clear
10:15 AM 71.6 °F - 39.2 °F 31% 30.14 in 10.0 mi NW 4.6 mph - N/A   Clear
10:35 AM 73.4 °F - 39.2 °F 29% 30.14 in 10.0 mi Calm Calm - N/A   Clear
10:55 AM 73.4 °F - 39.2 °F 29% 30.13 in 10.0 mi Calm Calm - N/A   Clear
11:15 AM 75.2 °F - 39.2 °F 27% 30.12 in 7.0 mi ENE 5.8 mph - N/A   Clear
11:35 AM 78.8 °F - 39.2 °F 24% 30.11 in 7.0 mi NNE 4.6 mph - N/A   Clear
11:55 AM 78.8 °F - 39.2 °F 24% 30.10 in 9.0 mi Calm Calm - N/A   Clear
12:15 PM 80.6 °F - 39.2 °F 23% 30.09 in 9.0 mi NNW 4.6 mph - N/A   Clear
12:35 PM 82.4 °F - 39.2 °F 21% 30.09 in 4.0 mi Calm Calm - N/A   Clear
12:55 PM 82.4 °F - 41.0 °F 23% 30.09 in 4.0 mi North 3.5 mph - N/A   Clear
1:15 PM 84.2 °F - 41.0 °F 22% 30.07 in 2.5 mi ENE 3.5 mph - N/A   Clear
1:35 PM 86.0 °F - 42.8 °F 22% 30.06 in 3.0 mi North 4.6 mph - N/A   Clear
1:55 PM 87.8 °F - 42.8 °F 21% 30.05 in 2.0 mi East 4.6 mph - N/A   Clear
2:15 PM 89.6 °F - 42.8 °F 20% 30.04 in 5.0 mi Calm Calm - N/A   Clear
2:35 PM 89.6 °F - 41.0 °F 18% 30.03 in 2.0 mi ENE 5.8 mph - N/A   Clear
2:55 PM 91.4 °F - 39.2 °F 16% 30.02 in 3.0 mi Calm Calm - N/A   Clear
3:15 PM 91.4 °F - 39.2 °F 16% 30.01 in 2.5 mi North 6.9 mph - N/A   Clear
3:35 PM 91.4 °F - 37.4 °F 15% 30.00 in 5.0 mi North 5.8 mph - N/A   Clear
3:55 PM 93.2 °F - 37.4 °F 14% 30.00 in 10.0 mi North 5.8 mph - N/A   Clear
4:15 PM 93.2 °F - 37.4 °F 14% 29.99 in 10.0 mi NNW 4.6 mph - N/A   Clear
4:35 PM 93.2 °F - 37.4 °F 14% 29.98 in 10.0 mi North 8.1 mph - N/A   Clear
4:55 PM 93.2 °F - 39.2 °F 15% 29.98 in 10.0 mi NNW 9.2 mph - N/A   Clear
5:15 PM 93.2 °F - 41.0 °F 16% 29.97 in 10.0 mi NW 11.5 mph - N/A   Clear
5:35 PM 91.4 °F - 42.8 °F 18% 29.97 in 10.0 mi NNW 8.1 mph - N/A   Clear
5:55 PM 91.4 °F - 42.8 °F 18% 29.97 in 10.0 mi NW 9.2 mph - N/A   Clear
6:15 PM 89.6 °F - 42.8 °F 20% 29.97 in 10.0 mi WNW 12.7 mph - N/A   Clear
6:35 PM 87.8 °F - 42.8 °F 21% 29.97 in 10.0 mi NW 12.7 mph - N/A   Clear
6:55 PM 84.2 °F - 41.0 °F 22% 29.97 in 10.0 mi NW 11.5 mph - N/A   Clear
7:15 PM 82.4 °F - 39.2 °F 21% 29.97 in 10.0 mi WNW 13.8 mph - N/A   Clear
7:35 PM 80.6 °F - 39.2 °F 23% 29.97 in 10.0 mi WNW 15.0 mph - N/A   Clear
7:55 PM 80.6 °F - 39.2 °F 23% 29.96 in 10.0 mi WNW 15.0 mph 20.7 mph N/A   Clear
8:35 PM 78.8 °F - 39.2 °F 24% 29.98 in 10.0 mi WNW 17.3 mph 25.3 mph N/A   Clear
8:55 PM 77.0 °F - 42.8 °F 29% 29.99 in 10.0 mi WNW 20.7 mph 28.8 mph N/A   Clear
9:15 PM 77.0 °F - 42.8 °F 29% 29.98 in 10.0 mi WNW 20.7 mph 28.8 mph N/A   Clear
9:35 PM 77.0 °F - 42.8 °F 29% 29.98 in 10.0 mi WNW 17.3 mph 21.9 mph N/A   Clear
9:55 PM 75.2 °F - 42.8 °F 31% 29.99 in 10.0 mi WNW 19.6 mph - N/A   Clear
10:15 PM 75.2 °F - 41.0 °F 29% 29.99 in 10.0 mi NW 18.4 mph 23.0 mph N/A   Clear
10:35 PM 75.2 °F - 41.0 °F 29% 29.99 in 10.0 mi WNW 19.6 mph 27.6 mph N/A   Clear
10:55 PM 73.4 °F - 39.2 °F 29% 30.00 in 10.0 mi NNW 17.3 mph - N/A   Clear
11:15 PM 73.4 °F - 39.2 °F 29% 30.00 in 10.0 mi NW 20.7 mph 25.3 mph N/A   Clear
11:35 PM 73.4 °F - 39.2 °F 29% 30.00 in 10.0 mi NW 13.8 mph - N/A   Clear
11:55 PM 73.4 °F - 39.2 °F 29% 30.01 in 10.0 mi NW 15.0 mph - N/A   Clear